Cedar Rapids, IA

7:27 AM CST on November 23, 2017 (GMT -0600)
The Eastern Iowa Airport

Weather History for KCID - October, 2013

Change the Weather History Date:

Tuesday, October 8, 2013

  Actual Average Record
Temperature  
Mean Temperature 61 °F 54 °F  
Max Temperature 77 °F 65 °F 89 °F (1916)
Min Temperature 45 °F 42 °F 25 °F (1976)
Degree Days  
Heating Degree Days 4 12  
Month to date heating degree days 40 87  
Since 1 July heating degree days 139 244  
Cooling Degree Days 0 1  
Month to date cooling degree days 19 8  
Year to date cooling degree days 884 748  
Growing Degree Days 12 (Base 50)    
Moisture  
Dew Point 41 °F    
Average Humidity 55    
Maximum Humidity 86    
Minimum Humidity 23    
Precipitation  
Precipitation 0.00 in 0.09 in 1.42 in (1958)
Month to date precipitation 2.11 0.75  
Year to date precipitation 33.70 29.21  
Sea Level Pressure  
Sea Level Pressure 30.07 in    
Wind  
Wind Speed 8 mph (South)    
Max Wind Speed 20 mph    
Max Gust Speed 28 mph    
Visibility 10 miles    
Events      
T = Trace of Precipitation, MM = Missing Value Source: NWS Daily Summary

Daily Weather History Graph

Daily Weather History Graph

Search for Another Location

Airport or City:

Trip Planner

Search our weather history database for the weather conditions in past years. The results will help you decide how hot, cold, wet, or windy it might be!

Date:

Astronomy

Oct. 08, 2013 Rise Set
Actual Time 7:11 AM CDT 6:36 PM CDT
Civil Twilight 6:43 AM CDT 7:04 PM CDT
Nautical Twilight 6:11 AM CDT 7:36 PM CDT
Astronomical Twilight 5:39 AM CDT 8:08 PM CDT
Moon 11:09 AM CDT (10/8) 9:09 PM CDT (10/8)
Length of Visible Light 12h 20m
Length of Day
11h 24m
Waxing Crescent, 16% of the Moon is Illuminated
Oct 8
Waxing Crescent
Oct 11
First Quarter
Oct 18
Full
Oct 26
Last Quarter
Nov 3
New

Hourly Weather History & Observations

Time (CDT) Temp. Windchill Dew Point Humidity Pressure Visibility Wind Dir Wind Speed Gust Speed Precip Events Conditions
12:52 AM 46.0 °F 43.9 °F 39.0 °F 76% 30.06 in 10.0 mi SSE 4.6 mph - N/A   Clear
1:52 AM 46.9 °F - 41.0 °F 80% 30.06 in 10.0 mi South 4.6 mph - N/A   Clear
2:52 AM 46.9 °F - 41.0 °F 80% 30.06 in 10.0 mi South 6.9 mph - N/A   Clear
3:52 AM 48.0 °F - 41.0 °F 77% 30.07 in 10.0 mi South 6.9 mph - N/A   Clear
4:52 AM 46.9 °F - 42.1 °F 83% 30.08 in 10.0 mi South 6.9 mph - N/A   Clear
5:52 AM 46.9 °F - 42.1 °F 83% 30.08 in 10.0 mi South 4.6 mph - N/A   Clear
6:52 AM 46.9 °F - 41.0 °F 80% 30.10 in 10.0 mi SSE 4.6 mph - N/A   Clear
7:52 AM 48.0 °F - 42.1 °F 80% 30.11 in 10.0 mi South 4.6 mph - N/A   Clear
8:52 AM 54.0 °F - 46.0 °F 75% 30.12 in 10.0 mi South 4.6 mph - N/A   Clear
9:52 AM 61.0 °F - 46.9 °F 60% 30.11 in 10.0 mi South 5.8 mph - N/A   Clear
10:52 AM 66.0 °F - 48.0 °F 52% 30.11 in 10.0 mi South 8.1 mph - N/A   Clear
11:52 AM 71.1 °F - 45.0 °F 39% 30.10 in 10.0 mi South 12.7 mph - N/A   Clear
12:52 PM 73.9 °F - 39.9 °F 29% 30.09 in 10.0 mi SSW 13.8 mph 27.6 mph N/A   Clear
1:52 PM 75.9 °F - 39.9 °F 27% 30.05 in 10.0 mi South 18.4 mph 25.3 mph N/A   Clear
2:52 PM 77.0 °F - 41.0 °F 28% 30.04 in 10.0 mi SSE 15.0 mph 21.9 mph N/A   Clear
3:52 PM 75.9 °F - 41.0 °F 29% 30.04 in 10.0 mi South 12.7 mph 21.9 mph N/A   Clear
4:52 PM 75.0 °F - 41.0 °F 29% 30.04 in 10.0 mi South 12.7 mph - N/A   Clear
5:52 PM 73.0 °F - 42.1 °F 33% 30.03 in 10.0 mi South 9.2 mph - N/A   Clear
6:52 PM 66.9 °F - 44.1 °F 44% 30.05 in 10.0 mi SSE 4.6 mph - N/A   Clear
7:52 PM 64.0 °F - 43.0 °F 46% 30.05 in 10.0 mi SSE 8.1 mph - N/A   Clear
8:52 PM 62.1 °F - 25.0 °F 24% 30.06 in 10.0 mi SSE 9.2 mph - N/A   Clear
9:52 PM 59.0 °F - 36.0 °F 42% 30.07 in 10.0 mi SSE 6.9 mph - N/A   Clear
10:52 PM 57.9 °F - 39.9 °F 51% 30.07 in 10.0 mi South 6.9 mph - N/A   Clear
11:52 PM 59.0 °F - 39.9 °F 49% 30.08 in 10.0 mi South 6.9 mph - N/A   Clear